Salinas, CA

7:22 PM PDT on May 27, 2017 (GMT -0700)
Salinas Municipal

Weather History for KSNS - February, 2014

Change the Weather History Date:

Wednesday, February 26, 2014

  Actual Average Record
Temperature  
Mean Temperature 61 °F 54 °F  
Max Temperature 62 °F 64 °F 83 °F (1992)
Min Temperature 60 °F 44 °F 28 °F (1971)
Degree Days  
Heating Degree Days 4 11  
Month to date heating degree days 257 314  
Since 1 July heating degree days 1427 1792  
Cooling Degree Days 0 0  
Month to date cooling degree days 0 0  
Year to date cooling degree days 2 0  
Growing Degree Days 11 (Base 50)    
Moisture  
Dew Point 55 °F    
Average Humidity 81    
Maximum Humidity 84    
Minimum Humidity 78    
Precipitation  
Precipitation 0.71 in 0.09 in 0.71 in (2014)
Month to date precipitation 1.90 2.32  
Year to date precipitation 2.02 4.92  
Since 1 July precipitation 2.96  
Sea Level Pressure  
Sea Level Pressure 29.87 in    
Wind  
Wind Speed 16 mph (ESE)    
Max Wind Speed 28 mph    
Max Gust Speed 37 mph    
Visibility 9 miles    
Events Rain , Thunderstorm    
T = Trace of Precipitation, MM = Missing Value Source: NWS Daily Summary

Daily Weather History Graph

Daily Weather History Graph

Search for Another Location

Airport or City:

Trip Planner

Search our weather history database for the weather conditions in past years. The results will help you decide how hot, cold, wet, or windy it might be!

Date:

Astronomy

Feb. 26, 2014 Rise Set
Actual Time 6:40 AM PST 5:58 PM PST
Civil Twilight 6:14 AM PST 6:24 PM PST
Nautical Twilight 5:44 AM PST 6:54 PM PST
Astronomical Twilight 5:15 AM PST 7:24 PM PST
Moon 4:28 AM PST (2/26) 3:21 PM PST (2/26)
Length of Visible Light 12h 09m
Length of Day
11h 17m
Waning Crescent, 9% of the Moon is Illuminated
Feb 26
Waning Crescent
Mar 1
New
Mar 8
First Quarter
Mar 16
Full
Mar 23
Last Quarter

Hourly Weather History & Observations

Time (PST) Temp. Dew Point Humidity Pressure Visibility Wind Dir Wind Speed Gust Speed Precip Events Conditions
12:53 AM - - N/A% 30.01 in - SSW 4.6 mph - N/A   Scattered Clouds
1:53 AM - - N/A% 29.96 in 10.0 mi East 9.2 mph - N/A   Clear
2:53 AM - - N/A% 29.98 in 10.0 mi SE 3.5 mph - N/A   Overcast
3:53 AM - - N/A% 29.97 in 10.0 mi ENE 4.6 mph - N/A   Clear
4:53 AM - - N/A% 29.93 in 10.0 mi East 11.5 mph - 0.00 in   Partly Cloudy
5:53 AM - - N/A% 29.92 in 10.0 mi ESE 17.3 mph - N/A   Scattered Clouds
6:53 AM - - N/A% 29.94 in 10.0 mi ESE 13.8 mph - N/A   Overcast
7:53 AM - - N/A% 29.96 in 10.0 mi ESE 17.3 mph - 0.00 in Rain Light Rain
8:53 AM - - N/A% 29.96 in 4.0 mi ESE 17.3 mph - 0.12 in Rain Light Rain
9:53 AM - - N/A% 29.96 in 9.0 mi ESE 20.7 mph 25.3 mph 0.02 in Rain Light Rain
10:53 AM - - N/A% 29.94 in 8.0 mi ESE 19.6 mph - 0.04 in Rain Light Rain
11:53 AM - - N/A% 29.90 in 10.0 mi ESE 26.5 mph 32.2 mph 0.00 in   Mostly Cloudy
12:53 PM - - N/A% 29.86 in 10.0 mi ESE 27.6 mph 33.4 mph N/A   Overcast
1:53 PM - - N/A% 29.83 in 10.0 mi ESE 24.2 mph 32.2 mph N/A   Overcast
2:53 PM - - %  in - Calm Calm - -  
3:53 PM 61.0 °F 55.0 °F 81% 29.82 in - ESE 18.4 mph 26.5 mph 0.15 in   Overcast
4:53 PM 61.0 °F 55.0 °F 81% 29.81 in 2.5 mi ESE 16.1 mph - 0.13 in Rain Heavy Rain
5:03 PM 60.8 °F 55.4 °F 82% 29.80 in - ESE 19.6 mph - 0.07 in Rain Heavy Rain
5:53 PM 61.0 °F 54.0 °F 78% 29.77 in 10.0 mi ESE 23.0 mph 31.1 mph 0.11 in Rain Light Rain
6:53 PM 61.0 °F 54.0 °F 78% 29.75 in 9.0 mi ESE 21.9 mph 29.9 mph 0.01 in Rain Light Rain
7:36 PM 60.8 °F 55.4 °F 82% 29.75 in 4.0 mi ESE 21.9 mph 31.1 mph 0.04 in Rain , Thunderstorm Light Rain
7:53 PM 60.1 °F 55.0 °F 83% 29.75 in 4.0 mi ESE 23.0 mph 28.8 mph 0.06 in Rain Rain
8:53 PM 60.1 °F 55.0 °F 83% 29.77 in 10.0 mi ESE 19.6 mph - 0.06 in Rain Light Rain
9:28 PM 60.8 °F 55.4 °F 82% 29.79 in 10.0 mi South 12.7 mph 20.7 mph 0.00 in   Mostly Cloudy
9:53 PM 62.1 °F 55.0 °F 78% 29.80 in 10.0 mi ESE 16.1 mph 21.9 mph 0.00 in   Overcast
10:53 PM 62.1 °F 54.0 °F 75% 29.81 in 10.0 mi ESE 8.1 mph - 0.01 in Rain Light Rain
11:53 PM 61.0 °F 53.1 °F 75% 29.81 in 10.0 mi ENE 4.6 mph - 0.00 in   Partly Cloudy